Main page
METAR-TAF:

METAR-TAF

Airports :

Goeree Le, Netherlands

Oil platform

latitude: 51-55-33N, longitude: 3-40-12E, elevation: 19 m

Current weather observation

The report was made 53 minutes ago, at 23:25 UTC
Wind 14 kt from the West with gusts up to 18 kt
Temperature 8°C
Humidity 61%
Pressure 1021 hPa
Visibility 10 km or more

METAR: EHSC 192325Z AUTO 28014G18KT 9999 ///////// 08/01 Q1021 W12/H19

Time: 01:18 (00:18 UTC)


TAF: missing

Weather observations and forecasts of more than 4000 airports (METAR and TAF reports).

The available stations are represented by yellow and red dots on the map.

Hover mouse over dot to see the name of the station.

Then click to see weather observations and forecasts.

To change the map : click on the green buttons with a black cross to zoom in, on the green button with a dash to zoom out, or on the green arrows for adjacent maps.


METAR-TAF: